Location: Borowce
(50.8255°N, 19.6209°E)
Time: 07:01:21
(UTC+00:00)

Cosmos-2242 - Pass Details

Date: 19 May 2025
Orbit: 569 x 594 km, 82.5° (Epoch: 16 June)

Event Time Altitude Azimuth Distance (km) Brightness Sun altitude
Exits shadow 19:51:11 - 188° (S) 2,482 5.8 -10.3°
Reaches altitude 10° 19:52:32 10° 189° (S) 1,928 5.2 -10.4°
Maximum altitude 19:56:48 90° 121° (ESE) 603 3.0 -10.8°
Drops below altitude 10° 20:01:06 10° 10° (N) 1,938 6.2 -11.3°
Sets 20:03:19 0° 11° (N) 2,842 7.1 -11.5°
